Wind_Speed
1 0 0 1 1 1 2 2 2 3 3 2 2 3 3 3 4 4 5 5 4 4 5 5 5 6 5 5 5 6 6 7 7 7 7 7 6 7 7 7 7 7 7 7 7 8 8 8 8
0 1 1 1 1 1 1 2 2 2 2 2 3 4 4 4 4 5 5 6 5 5 6 6 6 6 6 7 7 8 8 8 8 8 7 7 7 7 7 7 7 7 8 8 8 8 8 8 9
1 2 2 3 3 2 2 2 2 2 2 3 3 4 4 4 5 5 6 6 6 6 6 6 7 7 7 7 8 8 8 8 8 7 7 7 7 7 8 8 8 8 8 8 8 9 9 9 9
2 3 3 4 4 4 3 3 3 3 3 4 4 5 5 5 6 6 7 7 7 6 7 7 7 7 8 8 8 8 8 8 8 8 8 8 8 8 8 8 8 9 9 9 9 9 9 10 10
4 4 5 5 5 5 4 4 4 4 4 5 5 6 6 6 6 6 7 8 8 8 7 8 8 8 8 8 8 9 9 9 9 9 8 8 9 9 9 8 9 8 8 8 9 9 10 10 10
5 6 6 6 7 5 5 5 5 5 5 6 6 7 8 7 7 7 8 8 9 9 9 8 8 8 8 9 8 9 9 9 9 9 9 9 9 9 9 9 8 8 8 8 9 9 9 9 10
7 7 7 8 7 7 6 6 6 6 7 7 7 8 8 9 8 8 8 9 9 9 9 9 9 8 9 8 8 8 8 9 9 9 9 8 8 8 8 8 8 8 8 8 8 8 8 9 9
8 8 8 8 8 8 7 7 7 8 8 8 9 9 9 10 10 9 9 9 9 9 9 9 9 9 8 8 8 8 8 8 9 8 8 7 8 8 8 8 8 8 8 8 8 8 8 8 7
9 9 9 9 9 9 9 8 8 8 8 9 9 10 10 11 10 9 9 9 9 9 9 9 9 9 8 7 7 8 8 8 8 8 7 7 7 8 8 8 8 8 7 7 7 7 7 6 6
10 10 9 9 9 9 9 9 9 9 9 9 10 10 10 10 10 9 9 9 9 9 9 9 9 8 8 7 7 7 7 7 7 7 8 8 8 8 8 8 7 7 7 7 7 7 6 5 5
10 10 10 10 10 9 9 10 10 10 9 10 10 10 10 9 9 9 9 9 9 9 9 9 8 8 7 7 6 7 7 7 7 7 8 8 8 7 8 7 6 6 6 6 6 6 5 5 5
11 11 11 11 10 9 9 10 10 10 10 10 10 10 10 9 9 9 9 9 9 8 8 8 8 7 7 7 6 6 7 7 7 6 6 6 7 7 8 7 6 6 5 5 5 4 4 4 4
12 12 11 11 10 10 10 10 10 10 10 10 10 10 10 9 9 9 9 8 8 8 7 7 7 7 7 7 7 7 7 7 6 6 6 6 7 7 7 7 7 6 5 5 4 4 3 3 3
11 12 11 11 11 10 10 10 10 10 10 10 10 10 10 9 8 8 9 9 7 7 7 7 7 7 7 7 7 7 7 7 6 6 6 6 6 6 7 6 6 5 4 4 4 3 3 3 3
12 12 11 11 10 10 10 10 10 10 10 10 11 10 10 9 9 8 8 8 7 7 7 7 7 7 7 7 6 6 6 6 6 6 6 5 5 5 4 5 5 4 3 3 3 3 3 3 3
12 12 12 12 12 11 10 11 10 10 10 10 10 10 10 11 10 9 8 8 8 8 7 7 7 7 6 6 6 6 6 6 5 5 5 5 4 4 3 4 4 3 3 2 2 2 2 2 2
12 11 11 12 11 11 11 11 11 11 11 11 11 11 10 11 10 9 9 9 9 8 8 7 7 7 7 6 6 6 6 5 4 4 5 4 4 4 4 4 4 4 3 2 1 1 1 1 1
12 11 11 11 11 11 11 11 11 11 10 10 11 11 10 10 11 10 9 9 9 8 8 7 7 7 7 6 6 6 6 5 4 5 4 4 4 4 3 3 4 4 3 2 2 1 1 0 0
12 12 12 11 12 12 11 11 11 10 10 10 11 10 10 10 11 11 10 9 9 9 8 8 7 7 7 7 7 7 6 5 5 5 5 4 4 4 3 3 4 3 3 2 2 1 1 1 1
12 12 11 11 11 12 12 11 11 11 11 11 10 10 10 10 11 10 10 9 9 9 9 9 8 8 8 7 6 6 6 5 5 5 5 4 3 4 4 4 3 3 3 2 2 2 2 1 1
12 12 12 12 12 12 12 11 11 11 11 11 11 11 10 10 10 11 10 10 10 9 9 9 8 8 8 7 6 6 6 5 4 4 5 5 4 4 4 4 3 3 3 2 2 2 2 1 1
13 13 14 14 13 12 12 11 10 11 11 11 11 11 10 10 11 11 11 10 11 10 9 9 9 8 8 8 8 7 6 5 5 5 5 5 5 5 4 4 3 3 2 2 2 2 2 1 1
14 14 14 14 14 13 12 12 9 10 10 10 11 11 11 11 11 11 11 11 11 11 10 9 9 9 9 9 8 7 6 7 6 6 5 5 5 5 5 4 3 3 2 2 2 2 2 1 1
15 14 14 14 14 13 12 12 9 10 10 11 11 12 11 11 11 11 11 11 11 11 11 11 10 9 9 9 8 8 8 8 8 7 7 6 6 5 5 5 4 3 3 2 2 2 2 2 1
14 14 15 15 15 13 13 13 10 11 11 11 11 11 11 11 11 11 11 11 11 11 10 11 11 9 9 9 9 9 9 9 9 9 8 7 6 6 5 5 4 4 3 3 2 2 2 2 1
15 15 15 16 15 13 14 14 12 12 11 11 11 11 11 10 10 10 10 10 11 11 10 10 11 10 9 9 9 9 10 10 10 10 9 8 7 7 6 5 5 4 4 3 3 3 2 1 2
16 16 15 16 16 15 15 14 13 12 11 11 11 11 10 10 10 10 11 11 11 11 10 9 11 11 10 9 9 10 10 10 11 10 10 9 8 7 7 6 5 5 4 4 3 3 2 2 2
17 16 16 16 17 17 15 14 13 12 11 10 11 12 12 11 11 10 11 11 11 11 11 10 10 10 10 10 9 10 11 11 11 11 10 9 8 7 7 7 6 6 5 4 3 3 2 2 2
17 18 18 18 18 18 17 15 14 13 12 12 12 12 12 11 10 9 9 10 10 10 10 9 9 10 10 11 10 11 11 11 11 10 10 10 9 8 8 8 7 6 6 5 4 4 3 3 3
19 19 18 18 18 18 18 16 14 14 14 13 13 12 11 10 10 9 9 9 8 8 9 9 10 10 10 11 11 12 12 12 12 11 11 11 10 10 9 8 8 8 7 6 5 5 4 4 4
Wind_Direction
125 98 14 9 22 13 29 47 49 45 36 21 338 324 326 340 347 330 318 313 307 301 301 299 291 288 290 286 280 278 277 276 275 277 274 270 267 262 264 264 265 267 267 267 268 267 267 261 257
330 301 305 319 330 335 8 15 24 31 18 354 328 319 316 325 335 322 314 313 304 303 301 296 291 286 284 283 279 277 275 274 277 275 267 269 273 271 267 266 269 269 270 268 268 267 266 264 262
309 306 301 301 298 296 312 346 344 340 337 329 317 312 320 325 324 312 306 312 309 302 300 302 296 289 283 278 278 276 272 271 273 272 268 265 270 270 267 268 269 269 271 268 269 269 267 266 265
298 303 293 292 291 294 303 327 336 319 316 311 312 306 312 319 312 307 304 306 306 302 301 296 296 292 286 281 276 274 270 271 272 269 266 263 266 269 268 269 270 271 273 270 269 268 266 269 268
284 289 290 290 289 295 298 314 325 326 314 307 308 309 309 309 308 306 304 303 302 300 297 296 294 293 291 285 279 272 271 273 273 269 267 265 267 270 268 274 277 277 277 277 274 271 268 270 272
277 282 287 292 290 294 304 303 307 308 307 305 306 304 303 304 304 302 300 297 298 299 294 292 290 291 290 286 277 272 271 270 269 270 269 265 269 273 269 272 277 282 282 280 278 275 272 273 272
279 280 281 284 290 293 298 301 300 302 302 302 303 301 302 302 298 298 299 297 297 297 294 290 290 287 287 284 278 276 274 273 271 271 264 261 267 270 266 266 270 275 279 278 277 276 274 275 272
279 281 280 283 288 294 295 298 303 301 302 301 299 298 300 301 296 296 299 300 297 293 292 290 290 286 284 281 280 279 277 277 279 275 260 259 264 269 265 267 270 269 270 273 277 279 275 275 274
276 277 280 282 286 291 297 297 301 303 300 301 300 300 299 299 298 297 299 301 298 291 290 290 290 286 283 281 281 281 278 277 278 276 263 260 262 265 267 267 268 266 266 272 279 280 276 273 272
274 275 279 282 285 292 297 298 300 301 299 301 302 304 302 302 301 298 300 303 299 294 291 290 289 287 283 280 279 279 275 276 275 274 269 263 262 264 267 266 263 267 266 271 281 277 270 266 267
271 274 278 283 285 288 293 295 298 298 300 300 300 302 304 304 303 303 300 302 300 296 293 291 290 287 285 280 279 278 273 275 277 273 271 266 265 265 262 259 257 261 261 268 272 268 263 260 264
268 269 273 279 288 288 290 294 295 297 300 301 300 301 304 303 304 306 305 306 302 296 294 292 294 289 285 284 281 279 276 281 278 272 266 269 267 265 258 254 253 259 260 265 263 260 257 260 267
267 267 273 278 279 284 286 289 293 296 300 301 302 304 306 308 307 305 306 306 302 298 296 292 293 290 288 287 289 285 278 278 271 267 261 259 263 263 257 252 255 259 257 259 256 255 250 266 272
268 269 272 277 278 281 285 287 291 295 299 301 303 301 303 305 305 306 306 309 306 301 294 287 286 287 290 287 286 285 279 279 269 266 257 258 254 261 258 253 255 252 250 250 249 249 250 266 266
264 267 270 272 274 277 283 285 289 294 296 299 304 304 303 300 302 307 307 307 307 304 294 289 286 286 287 289 285 282 279 276 269 265 259 259 255 257 250 240 242 232 229 241 245 246 248 250 256
264 266 268 270 274 279 284 287 290 292 293 295 299 302 302 301 299 300 302 303 305 304 298 291 284 284 282 285 281 275 272 272 268 255 255 257 253 240 242 233 221 218 221 228 230 218 227 250 259
262 264 265 269 274 279 283 286 287 288 291 293 295 296 297 301 297 296 296 299 302 302 301 295 283 279 275 273 273 267 267 265 258 247 247 247 239 240 241 220 212 213 208 203 194 176 192 242 266
261 262 266 270 275 278 283 284 284 285 288 289 291 293 294 295 296 295 295 295 295 296 297 295 286 275 272 269 269 270 264 254 246 238 235 231 239 239 221 204 201 199 193 186 187 183 169 177 271
261 264 269 274 276 280 283 282 283 286 286 287 288 291 292 291 292 293 291 290 289 289 291 291 285 272 266 265 269 270 262 250 243 231 220 217 222 212 195 192 192 190 184 180 182 173 153 133 96
262 267 272 277 278 282 283 282 281 285 285 287 289 291 293 291 291 292 290 286 284 282 286 290 282 266 262 260 263 263 250 245 233 213 206 200 200 196 189 182 182 182 176 172 171 163 156 126 96
262 267 271 277 278 282 284 282 283 281 283 287 290 290 290 291 291 288 286 286 282 279 278 279 280 267 257 254 253 249 248 245 220 212 213 206 200 199 197 185 175 173 173 172 163 153 142 123 103
258 263 268 273 275 278 281 283 283 282 285 288 289 290 290 290 289 287 284 284 283 279 276 274 275 265 256 250 243 237 237 221 212 208 210 204 195 191 193 194 191 189 188 180 177 172 164 147 152
255 261 265 270 273 276 280 280 282 283 288 288 289 291 291 291 288 286 285 283 281 277 272 268 264 260 253 249 241 232 224 217 212 210 214 207 200 195 194 196 199 195 193 193 198 199 196 195 226
254 258 262 267 270 273 280 281 285 285 287 288 290 291 291 289 287 285 282 279 274 272 269 261 254 254 251 243 238 229 220 217 214 214 212 206 202 198 196 198 208 208 200 197 198 203 207 208 226
253 255 260 263 267 273 276 278 285 284 287 292 293 293 292 288 284 284 281 278 275 273 270 257 250 248 247 241 235 228 221 214 214 212 208 206 204 202 202 206 214 218 216 207 204 201 196 214 237
252 254 258 265 269 272 271 275 281 285 288 291 292 293 293 290 285 283 282 277 274 271 263 256 252 249 246 241 234 222 217 214 212 209 207 206 207 208 210 213 216 219 220 218 224 220 223 245 265
251 253 257 262 267 269 271 275 277 282 287 289 292 296 295 290 287 283 279 274 272 268 260 252 248 246 241 235 227 221 216 212 208 209 210 210 213 215 216 217 219 222 225 223 230 226 231 252 269
250 252 253 257 264 269 272 275 277 281 286 287 288 292 292 290 287 284 278 272 269 264 255 244 238 235 233 229 227 220 213 209 208 210 211 211 213 215 219 221 222 226 226 219 225 216 234 247 261
245 247 250 255 262 268 271 274 276 280 284 286 287 289 288 284 285 282 275 271 267 259 248 239 233 232 232 229 226 220 214 211 212 212 212 212 215 219 221 224 226 229 227 227 233 234 246 253 258
245 248 251 255 263 266 270 272 273 276 283 286 289 288 286 282 280 280 275 267 259 253 246 241 236 233 229 227 223 217 215 214 216 218 219 218 217 219 222 224 227 228 228 230 237 242 251 257 263
Height
5899 5898 5898 5899 5899 5898 5897 5897 5897 5896 5896 5895 5894 5894 5894 5894 5895 5897 5893 5891 5891 5891 5890 5890 5889 5889 5889 5888 5888 5888 5888 5887 5887 5887 5887 5886 5886 5886 5886 5886 5885 5885 5885 5884 5884 5884 5884 5883 5883
5898 5898 5899 5898 5898 5897 5897 5897 5896 5896 5896 5895 5894 5894 5894 5893 5893 5893 5891 5890 5890 5890 5889 5889 5888 5888 5887 5887 5887 5887 5886 5886 5886 5886 5886 5885 5885 5885 5885 5884 5884 5884 5883 5883 5882 5882 5882 5882 5882
5898 5898 5899 5898 5897 5897 5897 5896 5896 5895 5895 5894 5894 5893 5893 5893 5892 5891 5890 5889 5889 5888 5888 5887 5887 5886 5886 5886 5885 5885 5885 5884 5884 5884 5884 5884 5884 5884 5883 5883 5882 5882 5882 5881 5881 5880 5880 5880 5880
5898 5898 5898 5898 5896 5896 5896 5895 5894 5894 5894 5893 5893 5892 5892 5892 5891 5890 5889 5888 5888 5887 5886 5886 5885 5884 5884 5884 5884 5883 5883 5883 5883 5883 5883 5882 5882 5882 5881 5881 5880 5880 5880 5879 5879 5878 5878 5878 5877
5897 5897 5897 5896 5895 5895 5895 5894 5894 5893 5893 5892 5892 5891 5890 5890 5889 5888 5887 5887 5886 5885 5885 5884 5883 5883 5882 5882 5882 5881 5881 5881 5881 5881 5881 5880 5880 5880 5879 5879 5878 5878 5878 5877 5877 5876 5876 5876 5875
5897 5896 5896 5895 5894 5894 5894 5893 5893 5892 5892 5891 5891 5890 5889 5889 5888 5887 5886 5885 5884 5884 5883 5882 5881 5881 5880 5880 5880 5879 5879 5879 5879 5878 5878 5878 5878 5878 5877 5877 5876 5876 5876 5875 5875 5874 5874 5873 5873
5896 5895 5894 5894 5893 5892 5893 5892 5892 5891 5890 5890 5889 5889 5887 5887 5886 5885 5884 5883 5882 5881 5881 5880 5879 5879 5878 5878 5877 5877 5877 5877 5877 5876 5876 5876 5876 5876 5875 5875 5874 5874 5874 5873 5873 5872 5872 5871 5870
5894 5894 5893 5892 5892 5891 5891 5890 5890 5889 5889 5888 5887 5887 5886 5885 5884 5883 5882 5881 5880 5879 5879 5878 5877 5876 5876 5876 5875 5875 5875 5875 5875 5874 5874 5874 5874 5874 5873 5873 5873 5872 5872 5871 5871 5870 5869 5869 5868
5892 5893 5891 5891 5890 5890 5889 5889 5888 5887 5887 5886 5885 5885 5884 5883 5881 5881 5880 5879 5878 5877 5877 5876 5875 5875 5874 5874 5873 5873 5873 5873 5873 5872 5872 5872 5872 5872 5872 5871 5871 5870 5870 5869 5869 5868 5867 5867 5867
5890 5890 5890 5889 5889 5888 5887 5887 5887 5886 5885 5884 5883 5882 5881 5881 5880 5879 5878 5877 5877 5876 5875 5874 5873 5873 5872 5872 5872 5871 5871 5871 5871 5871 5870 5870 5870 5870 5870 5869 5869 5868 5868 5867 5867 5866 5866 5866 5865
5888 5888 5888 5887 5887 5886 5886 5885 5885 5884 5883 5882 5881 5880 5879 5879 5878 5877 5876 5876 5875 5874 5873 5872 5872 5871 5871 5870 5870 5869 5869 5869 5869 5869 5868 5868 5868 5868 5868 5867 5867 5867 5866 5866 5865 5865 5864 5864 5864
5886 5886 5885 5885 5884 5884 5884 5883 5883 5882 5882 5881 5879 5878 5877 5877 5876 5875 5874 5873 5873 5872 5871 5870 5870 5869 5869 5869 5868 5868 5868 5867 5867 5866 5866 5866 5866 5866 5866 5866 5865 5865 5865 5864 5864 5863 5863 5863 5863
5884 5883 5883 5883 5882 5882 5882 5881 5881 5880 5879 5878 5877 5876 5875 5875 5874 5873 5872 5871 5871 5870 5869 5869 5868 5868 5867 5867 5866 5866 5866 5865 5865 5865 5865 5864 5864 5864 5864 5864 5864 5864 5863 5863 5862 5862 5862 5862 5861
5881 5881 5881 5881 5880 5879 5879 5879 5879 5878 5877 5876 5875 5874 5874 5873 5872 5871 5870 5869 5868 5868 5867 5867 5866 5866 5865 5865 5865 5864 5864 5863 5863 5863 5863 5862 5862 5862 5862 5862 5862 5862 5862 5862 5862 5862 5861 5861 5861
5878 5879 5879 5878 5878 5877 5877 5877 5876 5876 5875 5874 5873 5872 5871 5871 5870 5869 5868 5867 5866 5866 5865 5865 5864 5864 5864 5863 5863 5862 5862 5862 5861 5861 5861 5861 5861 5861 5861 5861 5861 5861 5861 5861 5861 5861 5860 5860 5860
5876 5876 5877 5876 5875 5875 5876 5875 5874 5873 5872 5871 5871 5870 5869 5869 5868 5867 5866 5865 5865 5864 5863 5863 5862 5862 5862 5861 5861 5861 5860 5860 5860 5860 5859 5859 5859 5859 5859 5860 5860 5860 5860 5860 5860 5860 5860 5859 5859
5873 5874 5874 5874 5873 5872 5873 5872 5871 5871 5870 5869 5868 5868 5867 5866 5866 5865 5864 5863 5863 5862 5861 5861 5860 5860 5859 5859 5859 5859 5858 5858 5858 5858 5858 5858 5858 5858 5858 5859 5859 5859 5860 5860 5860 5859 5859 5859 5859
5871 5871 5871 5871 5870 5870 5870 5869 5869 5868 5868 5867 5866 5865 5865 5864 5863 5862 5862 5861 5860 5860 5859 5859 5858 5858 5857 5857 5857 5857 5857 5857 5857 5857 5857 5857 5857 5857 5857 5858 5858 5859 5859 5859 5859 5859 5859 5859 5858
5868 5868 5868 5868 5867 5867 5866 5866 5866 5865 5865 5864 5863 5863 5862 5861 5861 5860 5859 5858 5858 5857 5857 5856 5856 5856 5856 5856 5855 5855 5855 5855 5855 5855 5855 5856 5856 5856 5857 5858 5858 5859 5859 5859 5859 5859 5859 5858 5858
5865 5865 5865 5865 5864 5864 5863 5863 5863 5862 5862 5861 5861 5860 5859 5858 5858 5857 5856 5856 5855 5855 5854 5854 5854 5853 5853 5853 5853 5853 5853 5853 5854 5854 5854 5855 5856 5856 5857 5857 5858 5858 5858 5858 5859 5858 5858 5858 5858
5862 5862 5862 5862 5861 5860 5861 5861 5860 5859 5859 5858 5858 5857 5856 5856 5855 5854 5853 5853 5853 5852 5852 5852 5852 5851 5851 5851 5852 5852 5852 5852 5853 5853 5854 5855 5855 5856 5857 5857 5858 5858 5858 5858 5858 5858 5858 5858 5858
5858 5859 5858 5858 5858 5858 5858 5858 5857 5856 5856 5855 5855 5854 5853 5852 5852 5851 5850 5850 5849 5849 5849 5849 5849 5849 5849 5849 5850 5850 5851 5851 5852 5853 5854 5854 5855 5855 5856 5857 5857 5857 5858 5858 5858 5858 5858 5858 5857
5855 5855 5855 5855 5854 5855 5854 5854 5855 5854 5853 5852 5851 5850 5850 5849 5849 5848 5847 5847 5846 5846 5847 5847 5847 5847 5847 5847 5848 5848 5849 5850 5851 5852 5853 5854 5855 5855 5856 5856 5857 5857 5857 5858 5858 5858 5858 5857 5857
5851 5851 5851 5851 5851 5852 5851 5850 5852 5851 5850 5849 5848 5847 5846 5846 5845 5844 5844 5844 5843 5843 5843 5844 5844 5844 5845 5845 5846 5847 5848 5849 5850 5851 5852 5853 5854 5854 5855 5856 5856 5857 5857 5857 5857 5857 5857 5857 5857
5847 5848 5848 5847 5847 5848 5847 5847 5849 5847 5846 5846 5845 5844 5843 5842 5842 5841 5841 5840 5840 5839 5840 5840 5841 5842 5843 5843 5844 5845 5846 5847 5849 5850 5851 5852 5853 5854 5854 5855 5855 5856 5856 5856 5856 5856 5856 5856 5856
5843 5844 5845 5845 5844 5844 5843 5843 5845 5844 5843 5842 5841 5841 5840 5839 5838 5838 5837 5837 5837 5837 5837 5837 5838 5839 5840 5841 5842 5843 5844 5846 5847 5848 5850 5851 5852 5853 5853 5854 5855 5855 5855 5855 5856 5856 5856 5856 5856
5838 5839 5840 5840 5839 5840 5840 5840 5841 5840 5840 5839 5838 5837 5837 5836 5835 5835 5834 5834 5834 5834 5834 5835 5836 5837 5838 5839 5840 5841 5843 5844 5846 5847 5848 5849 5851 5851 5852 5853 5853 5854 5854 5855 5855 5855 5855 5855 5855
5834 5835 5835 5835 5835 5835 5836 5836 5837 5836 5836 5836 5835 5834 5833 5833 5832 5831 5831 5831 5831 5831 5831 5832 5833 5834 5835 5837 5838 5840 5841 5842 5844 5845 5847 5848 5849 5850 5851 5852 5852 5853 5853 5854 5854 5854 5854 5854 5854
5829 5830 5830 5831 5831 5831 5831 5834 5833 5832 5832 5832 5831 5830 5830 5829 5829 5828 5828 5828 5828 5828 5829 5830 5831 5832 5833 5834 5836 5837 5839 5841 5842 5844 5845 5846 5847 5848 5849 5850 5851 5852 5852 5853 5853 5853 5853 5853 5853
5824 5825 5826 5827 5827 5827 5827 5831 5829 5828 5828 5828 5828 5827 5826 5826 5826 5825 5825 5825 5825 5826 5826 5827 5828 5829 5830 5832 5833 5835 5837 5839 5840 5842 5843 5844 5845 5846 5847 5848 5849 5850 5851 5851 5852 5852 5852 5852 5852